Weather WX

World > North America > United States > Minnesota

Balaton, Minnesota Regional Weather

Lat: 44.23N, Lon: 95.87W
Wx Zone: MNZ072
Warning FLW WEATHER ALERT - (More Info. Click Here) Warning
Feedback

Balaton, MN Regional Weather

Expires:201907170500;;762655
ASUS43 KMPX 170410
RWRMN 
WEATHER ROUNDUP FOR MINNESOTA
NATIONAL WEATHER SERVICE TWIN CITIES/CHANHASSEN MN
1100 PM CDT TUE JUL 16 2019


NOTE: "FAIR" INDICATES FEW OR NO CLOUDS BELOW 12,000 FEET WITH NO
SIGNIFICANT WEATHER AND/OR OBSTRUCTIONS TO VISIBILITY. N/A MEANS
CURRENT SKY AND/OR WEATHER CONDITIONS ARE NOT AVAILABLE.


MNZ071>073-080-081-089-090-097-098-170500-
   Southwest Minnesota   
  
CITY           SKY/WX    TMP DP  RH WIND       PRES   REMARKS
MONTEVIDEO     CLEAR     73  64  73 CALM      29.90R                  
GRANITE FALLS  CLEAR     72  69  89 S5        29.91S                  
CANBY          PTCLDY    77  68  73 SW6       29.92R                  
MARSHALL       CLEAR     74  66  76 S3        29.91R                  
REDWOOD FALLS  CLEAR     72  65  78 CALM      29.89R                  
OLIVIA         PTCLDY    72  66  83 SW3       29.90R                  
PIPESTONE      CLEAR     72  66  83 W3        29.93S                  
WINDOM         CLEAR     72  66  83 CALM      29.92S                  
WORTHINGTON    CLEAR     71  67  87 S5        29.94R                  
JACKSON        CLEAR     70  64  83 SE3       29.95R                  
TRACY          CLEAR    N/A N/A N/A S3        29.92R                  
$$

SKY/WX - Weather  TMP - Temperature  DP - Dew Point  RH - Relative Humidity
WIND - Wind Direction/Speed PRES - Barometric Pressure VSB - Visibility
WCI - Wind Chill Index E13G22 Wind - East Wind 13 mph/Gusts of 22 mph